This is the latest recevied weather packets stored in our database for station/object WD9EKA. If no packets are shown the sender has not sent any weather packets the latest 10 day(s).
| Time | Temp. | Humidity | Pressure | Rain* | Wind** | Luminosity | Snow |
|---|---|---|---|---|---|---|---|
| 1778098714 | 14.44° C | 50% | 1010 hPa | 0 mm | - | - | - |
| 1778098354 | 14.44° C | 61% | 1010.2 hPa | 0 mm | - | - | - |
| 1778097994 | 15° C | 51% | 1009.9 hPa | 0 mm | - | - | - |
| 1778097636 | 14.44° C | 52% | 1009.9 hPa | 0 mm | - | - | - |
| 1778097333 | 14.44° C | 55% | 1010.2 hPa | 0 mm | - | - | - |
| 1778096973 | 13.89° C | 51% | 1010.1 hPa | 0 mm | - | - | - |
| 1778096613 | 13.89° C | 55% | 1010.2 hPa | 0 mm | - | - | - |
| 1778096253 | 13.89° C | 59% | 1010.1 hPa | 0 mm | - | - | - |
| 1778095893 | 13.89° C | 60% | 1010.4 hPa | 0 mm | - | - | - |
| 1778095533 | 13.33° C | 65% | 1010.5 hPa | 0 mm | - | - | - |
| 1778094873 | 13.33° C | 72% | 1010.5 hPa | 0 mm | - | - | - |
| 1778094213 | 12.78° C | 70% | 1010.4 hPa | 0 mm | - | - | - |
| 1778093853 | 12.78° C | 76% | 1010.6 hPa | 0 mm | - | - | - |
| 1778093493 | 12.78° C | 76% | 1010.6 hPa | 0 mm | - | - | - |
| 1778093133 | 12.22° C | 74% | 1010.4 hPa | 0 mm | - | - | - |
| 1778092413 | 12.22° C | 77% | 1010.6 hPa | 0 mm | - | - | - |
| 1778092053 | 12.22° C | 80% | 1010.2 hPa | 0 mm | - | - | - |
| 1778091693 | 11.67° C | 81% | 1010.4 hPa | 0 mm | - | - | - |
| 1778091333 | 11.67° C | 80% | 1010.6 hPa | 0 mm | - | - | - |
| 1778090973 | 11.67° C | 79% | 1010.4 hPa | 0 mm | - | - | - |
| 1778090613 | 11.67° C | 82% | 1010.3 hPa | 0 mm | - | - | - |
| 1778090253 | 11.67° C | 82% | 1010.4 hPa | 0 mm | - | - | - |
| 1778089893 | 11.67° C | 83% | 1010.5 hPa | 0 mm | - | - | - |
| 1778089533 | 11.67° C | 83% | 1010.5 hPa | 0 mm | - | - | - |
| 1778089173 | 11.11° C | 83% | 1010.7 hPa | 0 mm | - | - | - |
* Rain latest hour (hover to see other rain measurements)
** Current wind speed in m/s (hover to see current wind gust speed)